GW1914 Weather Reports


time (UTC)temp
C
wind
direction
speed
KPH
gust
KPH
rain 1hr
cm
rain 24hr
cm
rain mn
cm
humidity
%
barometer
mb
20260506215037 23 191 11.3 19.3 0.00 0.00 0.00 45 1014.0
20260506214538 22 166 14.5 24.1 0.00 0.00 0.00 46 1013.9
20260506214037 23 182 12.9 24.1 0.00 0.00 0.00 46 1013.8
20260506213529 22 214 11.3 24.1 0.00 0.00 0.00 44 1013.7
20260506213024 22 200 17.7 24.1 0.00 0.00 0.00 44 1014.0
20260506212521 22 143 11.3 17.7 0.00 0.00 0.00 46 1014.1
20260506212028 22 215 11.3 16.1 0.00 0.00 0.00 47 1014.1
20260506211525 22 198 8.0 19.3 0.00 0.00 0.00 47 1014.4
20260506211035 22 188 14.5 25.7 0.00 0.00 0.00 46 1014.4
20260506210523 22 178 12.9 25.7 0.00 0.00 0.00 45 1014.4
20260506210037 22 148 11.3 22.5 0.00 0.00 0.00 46 1014.4
20260506205528 22 155 14.5 25.7 0.00 0.00 0.00 46 1014.4
20260506205034 22 193 17.7 30.6 0.00 0.00 0.00 46 1014.6
20260506204532 22 169 9.7 35.4 0.00 0.00 0.00 46 1014.5
20260506204021 22 15 3.2 17.7 0.00 0.00 0.00 46 1014.6
20260506203531 22 29 6.4 16.1 0.00 0.00 0.00 46 1014.7
20260506203025 22 205 4.8 22.5 0.00 0.00 0.00 49 1014.8
20260506202539 21 178 14.5 25.7 0.00 0.00 0.00 49 1014.9
20260506202029 22 128 12.9 25.7 0.00 0.00 0.00 48 1014.6
20260506201529 21 171 14.5 22.5 0.00 0.00 0.00 49 1014.8
20260506201038 21 211 9.7 20.9 0.00 0.00 0.00 50 1014.8
20260506200523 22 194 12.9 20.9 0.00 0.00 0.00 47 1014.9
20260506200018 22 217 4.8 16.1 0.00 0.00 0.00 45 1015.0
20260506195529 22 255 6.4 16.1 0.00 0.00 0.00 44 1014.9
20260506195018 22 211 3.2 8.0 0.00 0.00 0.00 44 1015.0
20260506194535 22 203 0.0 6.4 0.00 0.00 0.00 44 1015.1
20260506194027 21 190 1.6 8.0 0.00 0.00 0.00 45 1015.2
20260506193538 22 159 1.6 8.0 0.00 0.00 0.00 44 1015.2
20260506193031 22 325 1.6 6.4 0.00 0.00 0.00 45 1015.3
20260506192521 22 163 0.0 9.7 0.00 0.00 0.00 45 1015.6
20260506192030 21 180 1.6 8.0 0.00 0.00 0.00 52 1015.7
20260506191526 20 175 4.8 8.0 0.00 0.00 0.00 54 1015.7
20260506191034 20 301 1.6 9.7 0.00 0.00 0.00 51 1016.0
20260506190525 20 336 3.2 12.9 0.00 0.00 0.00 52 1015.7
20260506190022 20 275 3.2 12.9 0.00 0.00 0.00 54 1015.8
20260506185532 20 154 3.2 11.3 0.00 0.00 0.00 53 1015.8
20260506185022 19 307 3.2 8.0 0.00 0.00 0.00 51 1015.7
20260506184548 20 315 1.6 8.0 0.00 0.00 0.00 51 1015.7
20260506184026 19 243 1.6 8.0 0.00 0.00 0.00 52 1015.8
20260506183537 19 360 1.6 6.4 0.00 0.00 0.00 51 1015.8
20260506183047 19 334 1.6 6.4 0.00 0.00 0.00 51 1015.9
20260506182523 19 347 1.6 8.0 0.00 0.00 0.00 48 1015.9
20260506182032 19 40 3.2 8.0 0.00 0.00 0.00 47 1016.1
20260506181548 19 290 1.6 6.4 0.00 0.00 0.00 47 1016.1
20260506181021 19 19 0.0 4.8 0.00 0.00 0.00 46 1016.2
20260506180531 18 231 0.0 8.0 0.00 0.00 0.00 47 1016.2
20260506180029 18 297 1.6 8.0 0.00 0.00 0.00 47 1016.3
20260506175520 18 53 1.6 6.4 0.00 0.00 0.00 45 1016.3
20260506175029 18 273 1.6 6.4 0.00 0.00 0.00 44 1016.3
20260506174528 18 277 0.0 4.8 0.00 0.00 0.00 44 1016.4
20260506174034 18 331 0.0 4.8 0.00 0.00 0.00 44 1016.5
20260506173528 18 251 0.0 8.0 0.00 0.00 0.00 43 1016.6
20260506173024 18 209 1.6 8.0 0.00 0.00 0.00 43 1016.7
20260506172531 18 118 0.0 4.8 0.00 0.00 0.00 44 1016.8
20260506172021 18 320 0.0 4.8 0.00 0.00 0.00 44 1016.9
20260506171538 17 117 1.6 4.8 0.00 0.00 0.00 43 1016.8
20260506171029 17 188 0.0 3.2 0.00 0.00 0.00 47 1016.9
20260506170537 16 150 0.0 3.2 0.00 0.00 0.00 49 1016.9
20260506170038 16 144 0.0 4.8 0.00 0.00 0.00 50 1016.9
20260506165520 16 132 0.0 4.8 0.00 0.00 0.00 49 1016.9
20260506165035 16 143 0.0 3.2 0.00 0.00 0.00 47 1017.1
20260506164536 16 174 0.0 1.6 0.00 0.00 0.00 46 1017.2
20260506164022 16 148 0.0 1.6 0.00 0.00 0.00 51 1017.2
20260506163530 15 134 0.0 1.6 0.00 0.00 0.00 51 1017.3
20260506163029 15 121 0.0 1.6 0.00 0.00 0.00 51 1017.2
20260506162537 15 105 0.0 1.6 0.00 0.00 0.00 52 1017.1
20260506162026 15 92 0.0 3.2 0.00 0.00 0.00 54 1017.2
20260506161522 14 161 0.0 4.8 0.00 0.00 0.00 57 1017.2
20260506161031 14 141 0.0 4.8 0.00 0.00 0.00 58 1017.2
20260506160521 13 138 0.0 1.6 0.00 0.00 0.00 57 1017.2
20260506160037 13 70 0.0 1.6 0.00 0.00 0.00 57 1017.1
20260506155527 13 111 0.0 3.2 0.00 0.00 0.00 60 1017.1
20260506155035 13 87 0.0 1.6 0.00 0.00 0.00 63 1017.0
20260506154532 13 67 0.0 3.2 0.00 0.00 0.00 64 1017.0
20260506154027 12 237 0.0 3.2 0.00 0.00 0.00 62 1017.1
20260506153534 12 49 0.0 3.2 0.00 0.00 0.00 65 1017.1
20260506153036 12 140 0.0 1.6 0.00 0.00 0.00 67 1017.1
20260506152521 12 119 0.0 3.2 0.00 0.00 0.00 68 1017.1
20260506152033 12 209 0.0 3.2 0.00 0.00 0.00 71 1017.2
20260506151530 12 139 0.0 1.6 0.00 0.00 0.00 70 1017.2
20260506151022 12 93 0.0 1.6 0.00 0.00 0.00 70 1017.3
20260506150530 11 327 0.0 3.2 0.00 0.00 0.00 70 1017.3
20260506150029 11 140 0.0 0.0 0.00 0.00 0.00 69 1017.3
20260506145538 11 115 0.0 1.6 0.00 0.00 0.00 70 1017.3
20260506145028 11 155 0.0 4.8 0.00 0.00 0.00 70 1017.1
20260506144525 11 194 0.0 4.8 0.00 0.00 0.00 71 1017.3
20260506144032 11 177 0.0 3.2 0.00 0.00 0.00 70 1017.3
20260506143525 11 244 0.0 4.8 0.00 0.00 0.00 71 1017.3
20260506143023 11 180 0.0 4.8 0.00 0.00 0.00 71 1017.3
20260506142529 11 94 0.0 3.2 0.00 0.00 0.00 72 1017.3
20260506142020 11 256 0.0 1.6 0.00 0.00 0.00 73 1017.3
20260506141537 11 15 0.0 0.0 0.00 0.00 0.00 73 1017.3
20260506141028 11 325 0.0 1.6 0.00 0.00 0.00 74 1017.2
20260506140541 11 306 0.0 1.6 0.00 0.00 0.00 73 1017.4
20260506140030 10 329 0.0 0.0 0.00 0.00 0.00 73 1017.4
20260506135520 10 314 0.0 3.2 0.00 0.00 0.00 73 1017.3
20260506135028 10 101 0.0 3.2 0.00 0.00 0.00 73 1017.3
20260506134528 10 85 0.0 3.2 0.00 0.00 0.00 75 1017.3
20260506134041 10 142 0.0 4.8 0.00 0.00 0.00 76 1017.3
20260506133525 10 104 0.0 3.2 0.00 0.00 0.00 79 1017.4
20260506133024 9 105 0.0 3.2 0.00 0.00 0.00 82 1017.3
20260506132518 8 103 0.0 6.4 0.00 0.00 0.00 85 1017.2
20260506132028 7 194 3.2 6.4 0.00 0.00 0.00 86 1017.2
20260506131534 7 213 1.6 6.4 0.00 0.00 0.00 87 1017.1
20260506131034 7 271 0.0 6.4 0.00 0.00 0.00 87 1017.1
20260506130526 7 245 3.2 6.4 0.00 0.00 0.00 87 1017.1
20260506130022 7 234 0.0 3.2 0.00 0.00 0.00 88 1017.1
20260506125530 7 242 0.0 0.0 0.00 0.00 0.00 88 1017.0
20260506125020 7 237 0.0 0.0 0.00 0.00 0.00 88 1017.0
20260506124518 7 264 0.0 4.8 0.00 0.00 0.00 88 1017.0
20260506124030 7 272 0.0 4.8 0.00 0.00 0.00 89 1016.9
20260506123538 7 251 0.0 4.8 0.00 0.00 0.00 88 1016.9
20260506123034 7 211 0.0 4.8 0.00 0.00 0.00 87 1016.9
20260506122524 7 245 0.0 4.8 0.00 0.00 0.00 88 1016.8
20260506122031 7 240 3.2 6.4 0.00 0.00 0.00 87 1016.7
20260506121527 7 246 0.0 6.4 0.00 0.00 0.00 88 1016.7
20260506121024 7 234 1.6 4.8 0.00 0.00 0.00 88 1016.7
20260506120534 7 248 1.6 4.8 0.00 0.00 0.00 89 1016.7
20260506120028 7 229 0.0 1.6 0.00 0.00 0.00 89 1016.6
20260506115536 7 242 0.0 6.4 0.00 0.00 0.00 88 1016.6
20260506115026 7 219 1.6 6.4 0.00 0.00 0.00 88 1016.6
20260506114527 7 242 3.2 6.4 0.00 0.00 0.00 88 1016.7
20260506114035 7 238 0.0 6.4 0.00 0.00 0.00 88 1016.7
20260506113523 7 236 3.2 6.4 0.00 0.00 0.00 88 1016.6
20260506113033 7 234 1.6 8.0 0.00 0.00 0.00 87 1016.8
20260506112527 7 238 3.2 8.0 0.00 0.00 0.00 87 1016.8
20260506112019 7 232 3.2 6.4 0.00 0.00 0.00 86 1016.7
20260506111535 7 222 3.2 6.4 0.00 0.00 0.00 86 1016.8
20260506111026 7 221 0.0 4.8 0.00 0.00 0.00 85 1016.7
20260506110520 7 265 3.2 4.8 0.00 0.00 0.00 86 1016.7
20260506110036 7 232 1.6 6.4 0.00 0.00 0.00 86 1016.7
20260506105527 7 238 3.2 8.0 0.00 0.00 0.00 86 1016.7
20260506105037 7 246 1.6 8.0 0.00 0.00 0.00 85 1016.7
20260506104535 8 258 3.2 8.0 0.00 0.00 0.00 85 1016.7
20260506104022 8 236 0.0 8.0 0.00 0.00 0.00 86 1016.7
20260506103536 8 232 1.6 6.4 0.00 0.00 0.00 86 1016.6
20260506103031 8 235 1.6 4.8 0.00 0.00 0.00 86 1016.5
20260506102521 8 246 1.6 4.8 0.00 0.00 0.00 85 1016.6
20260506102030 8 234 1.6 4.8 0.00 0.00 0.00 85 1016.6
20260506101528 8 224 1.6 4.8 0.00 0.00 0.00 84 1016.7
20260506101019 8 258 0.0 4.8 0.00 0.00 0.00 85 1016.6
20260506100628 8 232 0.0 6.4 0.00 0.00 0.00 84 1016.6
20260506100024 8 210 3.2 8.0 0.00 0.00 0.00 81 1016.5
20260506095538 8 252 3.2 8.0 0.00 0.00 0.00 80 1016.5
20260506095027 9 215 1.6 6.4 0.00 0.00 0.00 81 1016.6
20260506094524 8 232 3.2 6.4 0.00 0.00 0.00 81 1016.6
20260506094038 8 234 1.6 4.8 0.00 0.00 0.00 81 1016.5
20260506093523 8 250 0.0 4.8 0.00 0.00 0.00 82 1016.5
20260506093020 8 232 1.6 4.8 0.00 0.00 0.00 82 1016.5
20260506092536 8 245 1.6 4.8 0.00 0.00 0.00 81 1016.5
20260506092020 8 242 1.6 4.8 0.00 0.00 0.00 82 1016.5
20260506091546 8 240 1.6 6.4 0.00 0.00 0.00 82 1016.4
20260506091027 9 252 3.2 6.4 0.00 0.00 0.00 82 1016.4
20260506090537 9 231 1.6 6.4 0.00 0.00 0.00 83 1016.4
20260506090033 9 240 0.0 4.8 0.00 0.00 0.00 82 1016.5
20260506085524 9 248 0.0 0.0 0.00 0.00 0.00 81 1016.4
20260506085034 9 234 0.0 0.0 0.00 0.00 0.00 80 1016.4
20260506084535 10 45 0.0 0.0 0.00 0.00 0.00 79 1016.3
20260506084024 10 252 0.0 0.0 0.00 0.00 0.00 78 1016.4
20260506083536 10 257 0.0 0.0 0.00 0.00 0.00 78 1016.4
20260506083033 9 255 0.0 0.0 0.00 0.00 0.00 78 1016.2
20260506082517 9 285 0.0 6.4 0.00 0.00 0.00 78 1016.3
20260506082028 9 288 0.0 12.9 0.00 0.00 0.00 77 1016.2
20260506081525 9 227 4.8 12.9 0.00 0.00 0.00 78 1016.3
20260506081037 9 246 4.8 12.9 0.00 0.00 0.00 78 1016.1
20260506080525 9 246 4.8 9.7 0.00 0.00 0.00 77 1016.0
20260506073520 10 186 4.8 8.0 0.00 0.00 0.00 78 1015.8
20260506073035 10 231 3.2 8.0 0.00 0.00 0.00 77 1015.8
20260506072529 10 215 3.2 8.0 0.00 0.00 0.00 77 1015.8
20260506072035 10 234 0.0 6.4 0.00 0.00 0.00 78 1015.8
20260506071531 10 234 0.0 6.4 0.00 0.00 0.00 76 1015.7
20260506071021 10 219 1.6 6.4 0.00 0.00 0.00 76 1015.8
20260506070531 10 211 1.6 6.4 0.00 0.00 0.00 75 1015.8
20260506062025 11 245 3.2 8.0 0.00 0.00 0.00 74 1015.3
20260506061518 11 248 4.8 8.0 0.00 0.00 0.00 74 1015.3
20260506061030 11 244 3.2 8.0 0.00 0.00 0.00 74 1015.2
20260506060536 11 242 3.2 8.0 0.00 0.00 0.00 73 1015.2
20260506051034 12 252 3.2 6.4 0.00 0.00 0.00 71 1014.5
20260506050523 12 176 3.2 6.4 0.00 0.00 0.00 68 1014.5
20260506045037 12 243 1.6 6.4 0.00 0.00 0.00 67 1014.5
20260506044533 13 238 3.2 6.4 0.00 0.00 0.00 65 1014.4
20260506044024 13 242 1.6 6.4 0.00 0.00 0.00 66 1014.4
20260506043534 13 233 3.2 6.4 0.00 0.00 0.00 64 1014.5
20260506043029 13 238 1.6 6.4 0.00 0.00 0.00 62 1014.5
20260506042538 13 192 3.2 11.3 0.00 0.00 0.00 63 1014.6
20260506042028 13 267 3.2 11.3 0.00 0.00 0.00 64 1014.4
20260506041525 13 225 3.2 8.0 0.00 0.00 0.00 62 1014.5
20260506041036 13 238 4.8 9.7 0.00 0.00 0.00 63 1014.3
20260506040524 13 254 4.8 9.7 0.00 0.00 0.00 65 1014.3
20260506040024 14 237 4.8 9.7 0.00 0.00 0.00 62 1014.2
20260506035530 15 220 1.6 9.7 0.00 0.00 0.00 55 1014.0
20260506035018 15 251 6.4 11.3 0.00 0.00 0.00 53 1014.0
20260506034537 15 232 1.6 6.4 0.00 0.00 0.00 60 1014.0
20260506034024 15 248 3.2 8.0 0.00 0.00 0.00 56 1013.9
20260506033534 15 239 3.2 8.0 0.00 0.00 0.00 57 1013.9
20260506033029 16 246 3.2 6.4 0.00 0.00 0.00 53 1013.9
20260506032521 16 251 1.6 6.4 0.00 0.00 0.00 49 1013.9
20260506032028 16 264 3.2 4.8 0.00 0.00 0.00 53 1013.8
20260506031526 16 249 1.6 4.8 0.00 0.00 0.00 53 1013.7
20260506031039 16 234 1.6 4.8 0.00 0.00 0.00 52 1013.7
20260506030532 16 261 1.6 4.8 0.00 0.00 0.00 52 1013.7
20260506030036 16 250 1.6 4.8 0.00 0.00 0.00 52 1013.6
20260506025539 17 258 3.2 4.8 0.00 0.00 0.00 50 1013.7
20260506025027 17 261 3.2 4.8 0.00 0.00 0.00 51 1013.7
20260506024546 18 267 3.2 4.8 0.00 0.00 0.00 42 1013.7
20260506024033 18 254 1.6 4.8 0.00 0.00 0.00 37 1013.7
20260506023522 20 248 1.6 4.8 0.00 0.00 0.00 38 1013.7
20260506023020 20 312 1.6 4.8 0.00 0.00 0.00 29 1013.6
20260506022534 20 312 1.6 4.8 0.00 0.00 0.00 28 1013.5
20260506022021 20 309 3.2 6.4 0.00 0.00 0.00 28 1013.6
20260506021519 20 300 3.2 6.4 0.00 0.00 0.00 28 1013.5
20260506021028 20 294 3.2 6.4 0.00 0.00 0.00 29 1013.4
20260506020518 21 310 3.2 9.7 0.00 0.00 0.00 28 1013.4
20260506020034 21 9 4.8 9.7 0.00 0.00 0.00 28 1013.5
20260506015529 21 5 4.8 8.0 0.00 0.00 0.00 27 1013.5
20260506015036 21 56 3.2 8.0 0.00 0.00 0.00 28 1013.6
20260506014533 21 304 4.8 6.4 0.00 0.00 0.00 27 1013.5
20260506014020 21 312 3.2 4.8 0.00 0.00 0.00 28 1013.5
20260506013531 21 304 1.6 6.4 0.00 0.00 0.00 27 1013.5
20260506013039 21 50 3.2 9.7 0.00 0.00 0.00 26 1013.5
20260506012518 21 48 6.4 16.1 0.00 0.00 0.00 25 1013.4
20260506012028 21 38 8.0 16.1 0.00 0.00 0.00 26 1013.4
20260506011523 21 28 4.8 16.1 0.00 0.00 0.00 26 1013.4
20260506011034 21 49 9.7 17.7 0.00 0.00 0.00 25 1013.4
20260506010523 21 331 6.4 14.5 0.00 0.00 0.00 26 1013.4
20260506010024 22 355 4.8 14.5 0.00 0.00 0.00 25 1013.4
20260506005530 22 12 8.0 16.1 0.00 0.00 0.00 25 1013.4
20260506005022 21 37 8.0 16.1 0.00 0.00 0.00 25 1013.5
20260506004521 21 5 9.7 17.7 0.00 0.00 0.00 24 1013.5
20260506004029 22 25 8.0 17.7 0.00 0.00 0.00 25 1013.6
20260506003518 22 51 3.2 9.7 0.00 0.00 0.00 25 1013.7
20260506003036 21 21 3.2 19.3 0.00 0.00 0.00 25 1013.7
20260506002527 21 309 8.0 19.3 0.00 0.00 0.00 25 1013.8
20260506002037 22 28 8.0 22.5 0.00 0.00 0.00 24 1013.9
20260506001537 22 52 8.0 25.7 0.00 0.00 0.00 24 1013.9
20260506001022 22 60 11.3 25.7 0.00 0.00 0.00 25 1014.0
20260506000531 22 360 9.7 25.7 0.00 0.00 0.00 24 1014.0
20260506000025 22 11 8.0 25.7 0.00 0.00 0.00 24 1014.1
20260505235533 22 57 3.2 16.1 0.00 0.00 0.00 25 1014.1
20260505235026 21 26 9.7 19.3 0.00 0.00 0.00 25 1014.2
20260505234529 22 34 11.3 19.3 0.00 0.00 0.00 24 1014.2
20260505234030 22 65 8.0 19.3 0.00 0.00 0.00 23 1014.2
20260505233526 22 24 6.4 19.3 0.00 0.00 0.00 25 1014.2
20260505233021 21 5 6.4 19.3 0.00 0.00 0.00 24 1014.0
20260505232531 21 360 4.8 16.1 0.00 0.00 0.00 25 1014.1
20260505232020 21 82 6.4 27.4 0.00 0.00 0.00 23 1014.1
20260505231540 22 44 11.3 27.4 0.00 0.00 0.00 24 1014.3
20260505231028 22 36 3.2 24.1 0.00 0.00 0.00 25 1014.3
20260505230535 21 57 9.7 24.1 0.00 0.00 0.00 25 1014.3
20260505230048 21 88 12.9 25.7 0.00 0.00 0.00 25 1014.4
20260505225519 21 32 17.7 25.7 0.00 0.00 0.00 24 1014.4
20260505225030 21 9 11.3 24.1 0.00 0.00 0.00 25 1014.5
20260505224529 22 25 11.3 20.9 0.00 0.00 0.00 25 1014.5
20260505224040 22 355 12.9 19.3 0.00 0.00 0.00 25 1014.6
20260505223526 21 302 6.4 19.3 0.00 0.00 0.00 25 1014.6
20260505223020 21 5 8.0 22.5 0.00 0.00 0.00 24 1014.7
20260505222535 21 360 11.3 24.1 0.00 0.00 0.00 26 1014.7
20260505222024 21 348 9.7 24.1 0.00 0.00 0.00 26 1014.7
20260505221521 21 302 14.5 24.1 0.00 0.00 0.00 26 1014.6
20260505221031 21 355 6.4 29.0 0.00 0.00 0.00 27 1014.8
20260505220520 21 12 19.3 29.0 0.00 0.00 0.00 25 1014.8
20260505220041 21 343 12.9 20.9 0.00 0.00 0.00 25 1014.7
20260505215527 21 14 11.3 25.7 0.00 0.00 0.00 26 1014.7